| time (UTC) | temp C | wind direction | speed KPH | gust KPH | rain 1hr cm | rain 24hr cm | rain mn cm | humidity % | barometer mb |
| 20260506222104 | 11 | 0.0 | 0.0 | 0.00 | 0.00 | 0.00 | 80 | 1001.0 | |
| 20260506221056 | 11 | 0.0 | 0.0 | 0.00 | 0.00 | 0.00 | 80 | 1001.1 | |
| 20260506220053 | 11 | 0.0 | 0.0 | 0.00 | 0.00 | 0.00 | 80 | 1001.0 | |
| 20260506215052 | 11 | 0.0 | 0.0 | 0.00 | 0.00 | 0.00 | 79 | 1001.1 | |
| 20260506214116 | 11 | 0.0 | 0.0 | 0.00 | 0.00 | 0.00 | 80 | 1001.1 | |
| 20260506213050 | 11 | 0.0 | 0.0 | 0.00 | 0.00 | 0.00 | 80 | 1001.0 | |
| 20260506212042 | 11 | 0.0 | 0.0 | 0.00 | 0.00 | 0.00 | 80 | 1001.2 | |
| 20260506210150 | 11 | 0.0 | 0.0 | 0.00 | 0.00 | 0.00 | 80 | 1001.1 | |
| 20260506204056 | 11 | 0.0 | 0.0 | 0.00 | 0.00 | 0.00 | 80 | 1001.2 | |
| 20260506202143 | 11 | 0.0 | 0.0 | 0.00 | 0.00 | 0.00 | 80 | 1000.6 | |
| 20260506201129 | 11 | 0.0 | 0.0 | 0.00 | 0.00 | 0.00 | 80 | 1000.5 | |
| 20260506200117 | 11 | 0.0 | 0.0 | 0.00 | 0.00 | 0.00 | 80 | 1000.7 | |
| 20260506195117 | 11 | 0.0 | 0.0 | 0.00 | 0.00 | 0.00 | 79 | 1000.5 | |
| 20260506194253 | 11 | 0.0 | 0.0 | 0.00 | 0.00 | 0.00 | 79 | 1000.5 | |
| 20260506193128 | 12 | 0.0 | 0.0 | 0.00 | 0.00 | 0.00 | 78 | 1000.6 | |
| 20260506191117 | 12 | 0.0 | 0.0 | 0.00 | 0.00 | 0.00 | 74 | 1000.4 | |
| 20260506184047 | 12 | 0.0 | 0.0 | 0.00 | 0.00 | 0.00 | 72 | 1000.2 | |
| 20260506183035 | 13 | 0.0 | 0.0 | 0.00 | 0.00 | 0.00 | 71 | 1000.0 | |
| 20260506182113 | 13 | 0.0 | 0.0 | 0.00 | 0.00 | 0.00 | 71 | 999.9 | |
| 20260506181027 | 13 | 0.0 | 0.0 | 0.00 | 0.00 | 0.00 | 70 | 999.8 | |
| 20260506180100 | 14 | 0.0 | 0.0 | 0.00 | 0.00 | 0.00 | 70 | 999.9 | |
| 20260506175158 | 15 | 0.0 | 0.0 | 0.00 | 0.00 | 0.00 | 69 | 999.8 | |
| 20260506174116 | 15 | 0.0 | 0.0 | 0.00 | 0.00 | 0.00 | 68 | 1000.0 | |
| 20260506173134 | 16 | 0.0 | 0.0 | 0.00 | 0.00 | 0.00 | 65 | 999.7 | |
| 20260506172108 | 16 | 0.0 | 0.0 | 0.00 | 0.00 | 0.00 | 65 | 999.7 | |
| 20260506171110 | 17 | 0.0 | 0.0 | 0.00 | 0.00 | 0.00 | 62 | 999.6 | |
| 20260506170204 | 18 | 0.0 | 0.0 | 0.00 | 0.00 | 0.00 | 60 | 999.5 | |
| 20260506165143 | 18 | 0.0 | 0.0 | 0.00 | 0.00 | 0.00 | 60 | 999.2 | |
| 20260506163053 | 18 | 0.0 | 0.0 | 0.00 | 0.00 | 0.00 | 61 | 999.2 | |
| 20260506162049 | 18 | 0.0 | 0.0 | 0.00 | 0.00 | 0.00 | 60 | 999.1 | |
| 20260506161044 | 20 | 0.0 | 0.0 | 0.00 | 0.00 | 0.00 | 57 | 999.0 | |
| 20260506160040 | 20 | 0.0 | 0.0 | 0.00 | 0.00 | 0.00 | 56 | 999.0 | |
| 20260506155057 | 21 | 0.0 | 0.0 | 0.00 | 0.00 | 0.00 | 53 | 998.9 | |
| 20260506154043 | 21 | 0.0 | 0.0 | 0.00 | 0.00 | 0.00 | 54 | 998.8 | |
| 20260506153031 | 22 | 0.0 | 0.0 | 0.00 | 0.00 | 0.00 | 50 | 998.7 | |
| 20260506152034 | 23 | 0.0 | 0.0 | 0.00 | 0.00 | 0.00 | 41 | 998.4 | |
| 20260506151031 | 23 | 0.0 | 0.0 | 0.00 | 0.00 | 0.00 | 41 | 998.4 | |
| 20260506150020 | 22 | 0.0 | 0.0 | 0.00 | 0.00 | 0.00 | 43 | 998.3 | |
| 20260506145114 | 22 | 0.0 | 0.0 | 0.00 | 0.00 | 0.00 | 41 | 998.2 | |
| 20260506144120 | 23 | 0.0 | 0.0 | 0.00 | 0.00 | 0.00 | 40 | 998.2 | |
| 20260506143107 | 25 | 0.0 | 0.0 | 0.00 | 0.00 | 0.00 | 40 | 998.1 | |
| 20260506142122 | 22 | 0.0 | 0.0 | 0.00 | 0.00 | 0.00 | 41 | 998.2 | |
| 20260506141102 | 23 | 0.0 | 0.0 | 0.00 | 0.00 | 0.00 | 41 | 998.1 | |
| 20260506140109 | 23 | 0.0 | 0.0 | 0.00 | 0.00 | 0.00 | 41 | 998.1 | |
| 20260506135052 | 23 | 0.0 | 0.0 | 0.00 | 0.00 | 0.00 | 40 | 998.1 | |
| 20260506134048 | 23 | 0.0 | 0.0 | 0.00 | 0.00 | 0.00 | 41 | 998.1 | |
| 20260506133052 | 23 | 0.0 | 0.0 | 0.00 | 0.00 | 0.00 | 40 | 998.0 | |
| 20260506132109 | 23 | 0.0 | 0.0 | 0.00 | 0.00 | 0.00 | 40 | 997.9 | |
| 20260506131042 | 22 | 0.0 | 0.0 | 0.00 | 0.00 | 0.00 | 43 | 998.0 | |
| 20260506130033 | 21 | 0.0 | 0.0 | 0.00 | 0.00 | 0.00 | 47 | 998.0 | |
| 20260506125030 | 21 | 0.0 | 0.0 | 0.00 | 0.00 | 0.00 | 50 | 998.0 | |
| 20260506124026 | 21 | 0.0 | 0.0 | 0.00 | 0.00 | 0.00 | 50 | 998.0 | |
| 20260506123048 | 22 | 0.0 | 0.0 | 0.00 | 0.00 | 0.00 | 45 | 998.0 | |
| 20260506122024 | 22 | 0.0 | 0.0 | 0.00 | 0.00 | 0.00 | 46 | 997.7 | |
| 20260506121119 | 22 | 0.0 | 0.0 | 0.00 | 0.00 | 0.00 | 50 | 997.7 | |
| 20260506120114 | 21 | 0.0 | 0.0 | 0.00 | 0.00 | 0.00 | 50 | 997.6 | |
| 20260506115112 | 22 | 0.0 | 0.0 | 0.00 | 0.00 | 0.00 | 51 | 997.6 | |
| 20260506114104 | 21 | 0.0 | 0.0 | 0.00 | 0.00 | 0.00 | 52 | 997.6 | |
| 20260506113122 | 20 | 0.0 | 0.0 | 0.00 | 0.00 | 0.00 | 52 | 997.6 | |
| 20260506112057 | 21 | 0.0 | 0.0 | 0.00 | 0.00 | 0.00 | 52 | 997.5 | |
| 20260506111055 | 21 | 0.0 | 0.0 | 0.00 | 0.00 | 0.00 | 52 | 997.5 | |
| 20260506110133 | 21 | 0.0 | 0.0 | 0.00 | 0.00 | 0.00 | 52 | 997.6 | |
| 20260506105048 | 20 | 0.0 | 0.0 | 0.00 | 0.00 | 0.00 | 56 | 997.6 | |
| 20260506104047 | 19 | 0.0 | 0.0 | 0.00 | 0.00 | 0.00 | 55 | 997.7 | |
| 20260506103101 | 20 | 0.0 | 0.0 | 0.00 | 0.00 | 0.00 | 53 | 997.6 | |
| 20260506102040 | 21 | 0.0 | 0.0 | 0.00 | 0.00 | 0.00 | 53 | 997.6 | |
| 20260506101032 | 19 | 0.0 | 0.0 | 0.00 | 0.00 | 0.00 | 57 | 997.7 | |
| 20260506100049 | 18 | 0.0 | 0.0 | 0.00 | 0.00 | 0.00 | 58 | 997.7 | |
| 20260506095027 | 19 | 0.0 | 0.0 | 0.00 | 0.00 | 0.00 | 56 | 997.6 | |
| 20260506094022 | 19 | 0.0 | 0.0 | 0.00 | 0.00 | 0.00 | 60 | 997.5 | |
| 20260506093018 | 18 | 0.0 | 0.0 | 0.00 | 0.00 | 0.00 | 58 | 997.5 | |
| 20260506092114 | 19 | 0.0 | 0.0 | 0.00 | 0.00 | 0.00 | 56 | 997.4 | |
| 20260506091111 | 20 | 0.0 | 0.0 | 0.00 | 0.00 | 0.00 | 55 | 997.3 | |
| 20260506090109 | 20 | 0.0 | 0.0 | 0.00 | 0.00 | 0.00 | 56 | 997.2 | |
| 20260506085125 | 20 | 0.0 | 0.0 | 0.00 | 0.00 | 0.00 | 60 | 997.1 | |
| 20260506084101 | 19 | 0.0 | 0.0 | 0.00 | 0.00 | 0.00 | 60 | 997.4 | |
| 20260506083058 | 18 | 0.0 | 0.0 | 0.00 | 0.00 | 0.00 | 62 | 997.4 | |
| 20260506082055 | 17 | 0.0 | 0.0 | 0.00 | 0.00 | 0.00 | 63 | 997.4 | |
| 20260506081052 | 17 | 0.0 | 0.0 | 0.00 | 0.00 | 0.00 | 68 | 997.5 | |
| 20260506073107 | 16 | 0.0 | 0.0 | 0.00 | 0.00 | 0.00 | 70 | 997.6 | |
| 20260506072036 | 15 | 0.0 | 0.0 | 0.00 | 0.00 | 0.00 | 70 | 997.6 | |
| 20260506071055 | 15 | 0.0 | 0.0 | 0.00 | 0.00 | 0.00 | 67 | 997.8 | |
| 20260506062121 | 13 | 0.0 | 0.0 | 0.00 | 0.00 | 0.00 | 78 | 997.6 | |
| 20260506061220 | 12 | 0.0 | 0.0 | 0.00 | 0.00 | 0.00 | 80 | 997.7 | |
| 20260506060117 | 12 | 0.0 | 0.0 | 0.00 | 0.00 | 0.00 | 81 | 997.7 | |
| 20260506051052 | 11 | 0.0 | 0.0 | 0.00 | 0.00 | 0.00 | 87 | 997.7 | |
| 20260506045039 | 11 | 0.0 | 0.0 | 0.00 | 0.00 | 0.00 | 88 | 997.7 | |
| 20260506044035 | 11 | 0.0 | 0.0 | 0.00 | 0.00 | 0.00 | 88 | 997.7 | |
| 20260506043040 | 11 | 0.0 | 0.0 | 0.00 | 0.00 | 0.00 | 88 | 997.9 | |
| 20260506042028 | 11 | 0.0 | 0.0 | 0.00 | 0.00 | 0.00 | 88 | 997.7 | |
| 20260506041025 | 11 | 0.0 | 0.0 | 0.00 | 0.00 | 0.00 | 88 | 997.6 | |
| 20260506040021 | 11 | 0.0 | 0.0 | 0.00 | 0.00 | 0.00 | 88 | 997.3 | |
| 20260506035038 | 11 | 0.0 | 0.0 | 0.00 | 0.00 | 0.00 | 87 | 996.8 | |
| 20260506034115 | 11 | 0.0 | 0.0 | 0.00 | 0.00 | 0.00 | 87 | 997.2 | |
| 20260506033110 | 11 | 0.0 | 0.0 | 0.00 | 0.00 | 0.00 | 87 | 997.9 | |
| 20260506032108 | 11 | 0.0 | 0.0 | 0.00 | 0.00 | 0.00 | 87 | 997.8 | |
| 20260506031106 | 11 | 0.0 | 0.0 | 0.00 | 0.00 | 0.00 | 87 | 998.0 | |
| 20260506025057 | 11 | 0.0 | 0.0 | 0.00 | 0.00 | 0.00 | 86 | 998.5 | |
| 20260506024053 | 11 | 0.0 | 0.0 | 0.00 | 0.00 | 0.00 | 86 | 998.6 | |
| 20260506023052 | 11 | 0.0 | 0.0 | 0.00 | 0.00 | 0.00 | 86 | 998.7 | |
| 20260506022046 | 11 | 0.0 | 0.0 | 0.00 | 0.00 | 0.00 | 87 | 998.7 | |
| 20260506021045 | 11 | 0.0 | 0.0 | 0.00 | 0.00 | 0.00 | 87 | 998.6 | |
| 20260506020039 | 11 | 0.0 | 0.0 | 0.00 | 0.00 | 0.00 | 88 | 998.9 | |
| 20260506015035 | 11 | 0.0 | 0.0 | 0.00 | 0.00 | 0.00 | 88 | 998.9 | |
| 20260506014031 | 11 | 0.0 | 0.0 | 0.00 | 0.00 | 0.00 | 89 | 999.2 | |
| 20260506013028 | 11 | 0.0 | 0.0 | 0.00 | 0.00 | 0.00 | 88 | 999.1 | |
| 20260506011020 | 11 | 0.0 | 0.0 | 0.00 | 0.00 | 0.00 | 88 | 998.5 | |
| 20260506010016 | 11 | 0.0 | 0.0 | 0.00 | 0.00 | 0.00 | 88 | 998.9 | |
| 20260506005133 | 11 | 0.0 | 0.0 | 0.00 | 0.00 | 0.00 | 87 | 998.6 | |
| 20260506004111 | 11 | 0.0 | 0.0 | 0.00 | 0.00 | 0.00 | 87 | 998.5 | |
| 20260506003106 | 11 | 0.0 | 0.0 | 0.00 | 0.00 | 0.00 | 86 | 998.5 | |
| 20260506002103 | 11 | 0.0 | 0.0 | 0.00 | 0.00 | 0.00 | 85 | 998.8 | |
| 20260506001059 | 11 | 0.0 | 0.0 | 0.00 | 0.00 | 0.00 | 85 | 999.0 | |
| 20260506000056 | 12 | 0.0 | 0.0 | 0.00 | 0.00 | 0.00 | 85 | 999.0 | |
| 20260505235053 | 12 | 0.0 | 0.0 | 0.00 | 0.00 | 0.00 | 85 | 999.2 | |
| 20260505234049 | 12 | 0.0 | 0.0 | 0.00 | 0.00 | 0.00 | 84 | 999.3 | |
| 20260505233044 | 12 | 0.0 | 0.0 | 0.00 | 0.00 | 0.00 | 84 | 999.4 | |
| 20260505232101 | 12 | 0.0 | 0.0 | 0.00 | 0.00 | 0.00 | 84 | 999.6 | |
| 20260505231038 | 12 | 0.0 | 0.0 | 0.00 | 0.00 | 0.00 | 81 | 999.6 | |
| 20260505230033 | 12 | 0.0 | 0.0 | 0.00 | 0.00 | 0.00 | 81 | 999.7 | |
| 20260505225033 | 12 | 0.0 | 0.0 | 0.00 | 0.00 | 0.00 | 81 | 999.7 | |
| 20260505224046 | 12 | 0.0 | 0.0 | 0.00 | 0.00 | 0.00 | 81 | 999.8 | |
| 20260505223043 | 12 | 0.0 | 0.0 | 0.00 | 0.00 | 0.00 | 81 | 999.7 |